Weather in Monteria

Colombia     8°45′18″N   75°52′35″W
temp.,
°C
wind,
m/s
gust,
m/s
humid.,
%
clouds,
%
prec.,
mm/h
press.,
hPa
HPBL,
m
2 march, tue
tue201:00+25wsw348033 0.0 1008138
04:00+24wsw478999 0.3 1007217
07:00+24wsw378893 0.3 1009272
10:00+30wsw325893 0.0 10111140
13:00+34wnw234082 0.0 10082161
16:00+32wnw765238 0.0 1005933
19:00+26nw587519 0.0 1007490
22:00+25nw487243 0.0 1009363
3 march, wed
wed301:00+25wnw248143 0.0 1009138
04:00+24wsw358556 0.0 1009173
07:00+24sw368536 0.0 1010264
10:00+29wsw335547 0.0 1012953
13:00+34wnw223926 0.0 10091896
16:00+31wnw775527 0.0 1006669
19:00+26nw597422 0.0 1008489
22:00+25nw37760 0.0 1011443
4 march, thu
thu401:00+24wnw25840 0.0 1010197
04:00+24w239035 0.0 1010110
07:00+24wsw258655 0.0 1012274
10:00+30wnw445629 0.0 1013985
13:00+32wnw645124 0.0 10101417
16:00+29wnw786222 0.0 1008726
19:00+25wnw597811 0.0 1009543
22:00+25nw378418 0.0 1011535
5 march, fri
fri501:00+24wnw368641 0.0 1010275
04:00+24wnw248554 0.0 1010173
07:00+25nw268076 0.1 1011486
10:00+29nw4457100 0.0 10121020
13:00+32wnw6449100 0.0 10091497
16:00+29wnw776174 0.0 1006831
19:00+25nw597967 0.0 1008674
22:00+25nnw378074 0.0 1010591
6 march, sat
sat601:00+24nw378487 0.0 1010440
04:00+24nnw3685100 0.1 1009354
07:00+25nw3684100 0.2 1011414
10:00+30nw445613 0.0 10121173
13:00+31nw655434 0.0 10081221
16:00+30nw776149 0.0 1006908
19:00+26nw698024 0.0 1007659
22:00+26nw487910 0.0 1010542